GW6599 Weather Reports


Display with metric or nautical units.
time (UTC)temp
F
wind
direction
speed
MPH
gust
MPH
rain 1hr
in
rain 24hr
in
rain mn
in
humidity
%
barometer
mb
20260506051015 71 326 1.0 3.0 0.00 0.00 0.00 52
20260506050516 71 312 2.0 5.0 0.00 0.00 0.00 51
20260506045036 71 323 1.0 3.0 0.00 0.00 0.00 54
20260506044516 70 318 2.0 3.0 0.00 0.00 0.00 54
20260506044016 70 346 0.0 1.0 0.00 0.00 0.00 54
20260506043516 70 343 0.0 1.0 0.00 0.00 0.00 54
20260506043017 70 42 0.0 2.0 0.00 0.00 0.00 55
20260506042516 70 228 0.0 1.0 0.00 0.00 0.00 55
20260506042016 70 0.0 0.0 0.00 0.00 0.00 55
20260506041517 70 282 2.0 3.0 0.00 0.00 0.00 57
20260506041017 70 320 1.0 2.0 0.00 0.00 0.00 57
20260506040517 70 331 0.0 1.0 0.00 0.00 0.00 55
20260506040017 69 132 0.0 1.0 0.00 0.00 0.00 55
20260506035517 70 0.0 0.0 0.00 0.00 0.00 55
20260506035017 70 0.0 0.0 0.00 0.00 0.00 54
20260506034517 70 0.0 0.0 0.00 0.00 0.00 55
20260506034017 70 332 0.0 2.0 0.00 0.00 0.00 54
20260506033517 70 0.0 0.0 0.00 0.00 0.00 53
20260506033017 70 251 1.0 3.0 0.00 0.00 0.00 53
20260506032517 70 214 1.0 2.0 0.00 0.00 0.00 52
20260506032017 70 107 1.0 3.0 0.00 0.00 0.00 52
20260506031518 70 78 1.0 2.0 0.00 0.00 0.00 52
20260506031018 70 0.0 0.0 0.00 0.00 0.00 54
20260506030515 69 124 0.0 2.0 0.00 0.00 0.00 55
20260506030018 69 0.0 0.0 0.00 0.00 0.00 55
20260506025538 69 0.0 0.0 0.00 0.00 0.00 54
20260506025018 69 0.0 0.0 0.00 0.00 0.00 55
20260506024515 69 36 0.0 0.0 0.00 0.00 0.00 54
20260506024015 69 0.0 0.0 0.00 0.00 0.00 55
20260506023515 69 0.0 0.0 0.00 0.00 0.00 54
20260506023015 70 0.0 0.0 0.00 0.00 0.00 54
20260506022516 70 0.0 0.0 0.00 0.00 0.00 55
20260506022016 70 310 1.0 2.0 0.00 0.00 0.00 53
20260506021536 70 0.0 0.0 0.00 0.00 0.00 53
20260506021016 70 0.0 0.0 0.00 0.00 0.00 52
20260506020516 70 0.0 0.0 0.00 0.00 0.00 52
20260506020016 70 0.0 0.0 0.00 0.00 0.00 51
20260506015516 70 0.0 0.0 0.00 0.00 0.00 53
20260506015016 71 0.0 0.0 0.00 0.00 0.00 54
20260506014517 71 321 1.0 2.0 0.00 0.00 0.00 51
20260506014016 71 0.0 0.0 0.00 0.00 0.00 49
20260506013517 71 344 1.0 3.0 0.00 0.00 0.00 52
20260506013016 71 0.0 0.0 0.00 0.00 0.00 53
20260506012516 71 317 0.0 2.0 0.00 0.00 0.00 52
20260506012037 71 0.0 0.0 0.00 0.00 0.00 53
20260506011537 71 329 0.0 1.0 0.00 0.00 0.00 52
20260506011017 72 302 1.0 2.0 0.00 0.00 0.00 51
20260506010517 72 51 0.0 1.0 0.00 0.00 0.00 50
20260506010017 73 0.0 0.0 0.00 0.00 0.00 49
20260506005517 73 0.0 0.0 0.00 0.00 0.00 50
20260506005017 74 0.0 0.0 0.00 0.00 0.00 48
20260506004537 74 273 1.0 2.0 0.00 0.00 0.00 46
20260506004018 74 330 0.0 2.0 0.00 0.00 0.00 48
20260506003517 75 0.0 0.0 0.00 0.00 0.00 48
20260506003017 75 0.0 0.0 0.00 0.00 0.00 47
20260506002517 75 0.0 0.0 0.00 0.00 0.00 47
20260506002017 76 329 0.0 1.0 0.00 0.00 0.00 46
20260506001518 76 317 1.0 3.0 0.00 0.00 0.00 44
20260506001018 76 323 1.0 3.0 0.00 0.00 0.00 43
20260506000518 76 316 2.0 5.0 0.00 0.00 0.00 43
20260506000015 77 316 2.0 4.0 0.00 0.00 0.00 42
20260505235515 77 234 3.0 5.0 0.00 0.00 0.00 43
20260505235018 77 321 1.0 3.0 0.00 0.00 0.00 43
20260505234516 77 312 1.0 3.0 0.00 0.00 0.00 43
20260505234015 77 223 1.0 3.0 0.00 0.00 0.00 43
20260505233516 77 308 2.0 4.0 0.00 0.00 0.00 42
20260505233016 77 309 1.0 2.0 0.00 0.00 0.00 43
20260505232516 77 314 3.0 4.0 0.00 0.00 0.00 43
20260505232015 78 308 1.0 2.0 0.00 0.00 0.00 44
20260505231516 78 296 1.0 3.0 0.00 0.00 0.00 45
20260505231015 78 306 1.0 3.0 0.00 0.00 0.00 45
20260505230516 78 296 1.0 2.0 0.00 0.00 0.00 45
20260505230016 78 305 2.0 3.0 0.00 0.00 0.00 44
20260505225517 79 101 2.0 4.0 0.00 0.00 0.00 42
20260505225016 79 326 1.0 2.0 0.00 0.00 0.00 42
20260505224537 79 315 3.0 4.0 0.00 0.00 0.00 42
20260505224016 78 0.0 0.0 0.00 0.00 0.00 41
20260505223517 78 320 0.0 2.0 0.00 0.00 0.00 41
20260505223017 79 308 2.0 4.0 0.00 0.00 0.00 41
20260505222516 79 312 2.0 3.0 0.00 0.00 0.00 41
20260505222017 79 63 1.0 3.0 0.00 0.00 0.00 41
20260505221517 80 307 1.0 3.0 0.00 0.00 0.00 40
20260505221017 80 304 3.0 6.0 0.00 0.00 0.00 40
20260505220517 80 308 4.0 6.0 0.00 0.00 0.00 39
20260505220017 80 354 3.0 5.0 0.00 0.00 0.00 40
20260505215518 81 324 4.0 6.0 0.00 0.00 0.00 39
20260505215017 81 295 5.0 8.0 0.00 0.00 0.00 38
20260505214638 81 317 3.0 6.0 0.00 0.00 0.00 38
20260505214118 81 319 4.0 8.0 0.00 0.00 0.00 37
20260505213517 81 73 1.0 3.0 0.00 0.00 0.00 39
20260505213018 81 294 4.0 6.0 0.00 0.00 0.00 39
20260505212518 81 168 3.0 5.0 0.00 0.00 0.00 39
20260505212018 81 303 4.0 8.0 0.00 0.00 0.00 40
20260505211518 81 303 4.0 7.0 0.00 0.00 0.00 39
20260505211038 81 325 4.0 8.0 0.00 0.00 0.00 38
20260505210515 81 301 5.0 7.0 0.00 0.00 0.00 38
20260505210015 81 299 3.0 6.0 0.00 0.00 0.00 38
20260505205516 81 315 4.0 7.0 0.00 0.00 0.00 36
20260505205016 81 303 5.0 12.0 0.00 0.00 0.00 38
20260505204515 81 297 3.0 5.0 0.00 0.00 0.00 38
20260505204015 81 233 2.0 6.0 0.00 0.00 0.00 39
20260505203516 81 305 6.0 13.0 0.00 0.00 0.00 38
20260505203016 81 25 3.0 9.0 0.00 0.00 0.00 38
20260505202516 81 323 4.0 9.0 0.00 0.00 0.00 38
20260505202016 80 276 2.0 3.0 0.00 0.00 0.00 39
20260505201516 80 312 4.0 7.0 0.00 0.00 0.00 38
20260505201016 81 9 4.0 6.0 0.00 0.00 0.00 36
20260505200516 80 129 2.0 5.0 0.00 0.00 0.00 38
20260505200016 80 301 5.0 9.0 0.00 0.00 0.00 37
20260505195517 80 339 4.0 7.0 0.00 0.00 0.00 38
20260505195017 80 299 5.0 9.0 0.00 0.00 0.00 37
20260505194537 80 303 4.0 6.0 0.00 0.00 0.00 38
20260505194017 80 300 6.0 19.0 0.00 0.00 0.00 36
20260505193537 80 99 3.0 5.0 0.00 0.00 0.00 38
20260505193017 80 294 2.0 5.0 0.00 0.00 0.00 38
20260505192536 80 241 2.0 4.0 0.00 0.00 0.00 38
20260505192037 80 311 3.0 6.0 0.00 0.00 0.00 37
20260505191517 80 298 3.0 5.0 0.00 0.00 0.00 39
20260505191038 79 312 4.0 6.0 0.00 0.00 0.00 40
20260505190537 79 312 5.0 8.0 0.00 0.00 0.00 40
20260505190017 80 288 5.0 9.0 0.00 0.00 0.00 38
20260505185515 80 247 3.0 6.0 0.00 0.00 0.00 39
20260505185016 80 320 5.0 8.0 0.00 0.00 0.00 41
20260505184536 80 77 3.0 5.0 0.00 0.00 0.00 39
20260505184016 80 314 4.0 6.0 0.00 0.00 0.00 38
20260505183516 79 317 2.0 7.0 0.00 0.00 0.00 38
20260505183016 79 301 5.0 9.0 0.00 0.00 0.00 40
20260505182537 79 293 3.0 7.0 0.00 0.00 0.00 41
20260505182016 79 288 4.0 6.0 0.00 0.00 0.00 40
20260505181516 79 290 7.0 13.0 0.00 0.00 0.00 40
20260505181015 79 327 3.0 7.0 0.00 0.00 0.00 41
20260505180515 79 6 4.0 7.0 0.00 0.00 0.00 42
20260505180015 79 310 5.0 9.0 0.00 0.00 0.00 42
20260505175515 79 310 5.0 9.0 0.00 0.00 0.00 40
20260505175016 79 325 3.0 5.0 0.00 0.00 0.00 41
20260505174516 79 13 4.0 7.0 0.00 0.00 0.00 40
20260505174016 78 306 6.0 8.0 0.00 0.00 0.00 42
20260505173516 78 273 4.0 9.0 0.00 0.00 0.00 42
20260505173016 78 301 6.0 8.0 0.00 0.00 0.00 42
20260505172516 78 282 4.0 8.0 0.00 0.00 0.00 40
20260505172036 78 297 4.0 7.0 0.00 0.00 0.00 40
20260505171516 77 287 5.0 8.0 0.00 0.00 0.00 40
20260505171016 77 285 5.0 7.0 0.00 0.00 0.00 41
20260505170516 78 299 6.0 8.0 0.00 0.00 0.00 40
20260505170016 78 293 5.0 7.0 0.00 0.00 0.00 41
20260505165536 79 298 4.0 6.0 0.00 0.00 0.00 41
20260505165016 78 195 3.0 7.0 0.00 0.00 0.00 42
20260505164516 77 314 4.0 5.0 0.00 0.00 0.00 44
20260505164017 77 310 3.0 5.0 0.00 0.00 0.00 44
20260505163537 78 298 5.0 8.0 0.00 0.00 0.00 43
20260505163017 78 305 3.0 6.0 0.00 0.00 0.00 43
20260505162516 77 334 3.0 6.0 0.00 0.00 0.00 43
20260505162017 77 238 2.0 4.0 0.00 0.00 0.00 44
20260505161517 78 282 5.0 9.0 0.00 0.00 0.00 43
20260505161017 78 4 3.0 5.0 0.00 0.00 0.00 42
20260505160537 77 196 4.0 7.0 0.00 0.00 0.00 43
20260505153018 75 295 2.0 6.0 0.00 0.00 0.00 46
20260505152518 75 306 3.0 4.0 0.00 0.00 0.00 50
20260505152018 76 276 2.0 4.0 0.00 0.00 0.00 49
20260505151517 74 187 1.0 3.0 0.00 0.00 0.00 49
20260505151015 74 311 1.0 3.0 0.00 0.00 0.00 49
20260505150535 74 265 2.0 5.0 0.00 0.00 0.00 47
20260505140516 73 246 1.0 3.0 0.00 0.00 0.00 54
20260505125017 61 0.0 0.0 0.00 0.00 0.00 75
20260505124517 60 0.0 0.0 0.00 0.00 0.00 78
20260505124017 59 0.0 0.0 0.00 0.00 0.00 78
20260505123517 58 0.0 0.0 0.00 0.00 0.00 80
20260505123018 58 0.0 0.0 0.00 0.00 0.00 81
20260505122518 58 0.0 0.0 0.00 0.00 0.00 80
20260505122038 58 311 0.0 1.0 0.00 0.00 0.00 78
20260505121518 57 0.0 0.0 0.00 0.00 0.00 79
20260505121018 57 0.0 0.0 0.00 0.00 0.00 80
20260505120518 56 0.0 0.0 0.00 0.00 0.00 81
20260505120018 55 0.0 0.0 0.00 0.00 0.00 82
20260505115518 55 63 0.0 1.0 0.00 0.00 0.00 82
20260505115018 53 0.0 0.0 0.00 0.00 0.00 85
20260505114535 52 0.0 0.0 0.00 0.00 0.00 86
20260505114015 51 0.0 0.0 0.00 0.00 0.00 88
20260505113515 50 320 0.0 1.0 0.00 0.00 0.00 92
20260505113015 49 0.0 0.0 0.00 0.00 0.00 95
20260505112544 48 0.0 0.0 0.00 0.00 0.00 97
20260505112023 48 0.0 0.0 0.00 0.00 0.00 97
20260505111523 47 0.0 0.0 0.00 0.00 0.00 97
20260505111016 47 0.0 0.0 0.00 0.00 0.00 97
20260505110516 47 0.0 0.0 0.00 0.00 0.00 97
20260505102016 47 0.0 0.0 0.00 0.00 0.00 97
20260505101537 47 0.0 0.0 0.00 0.00 0.00 96
20260505101017 47 26 0.0 0.0 0.00 0.00 0.00 97
20260505100517 47 0.0 0.0 0.00 0.00 0.00 96
20260505100017 48 0.0 0.0 0.00 0.00 0.00 97
20260505095517 48 297 0.0 1.0 0.00 0.00 0.00 96
20260505095037 48 286 0.0 0.0 0.00 0.00 0.00 96
20260505094517 48 0.0 0.0 0.00 0.00 0.00 96
20260505094018 48 311 0.0 1.0 0.00 0.00 0.00 95
20260505093517 48 333 0.0 1.0 0.00 0.00 0.00 95
20260505093017 48 315 0.0 1.0 0.00 0.00 0.00 95
20260505092518 48 0.0 0.0 0.00 0.00 0.00 95
20260505092018 48 285 1.0 1.0 0.00 0.00 0.00 95
20260505091517 48 339 0.0 1.0 0.00 0.00 0.00 95
20260505091018 48 0.0 0.0 0.00 0.00 0.00 94
20260505090518 49 318 0.0 1.0 0.00 0.00 0.00 94
20260505090018 49 312 0.0 1.0 0.00 0.00 0.00 94
20260505085518 49 0.0 0.0 0.00 0.00 0.00 93
20260505085035 49 313 0.0 1.0 0.00 0.00 0.00 93
20260505084515 49 0.0 0.0 0.00 0.00 0.00 93
20260505084015 49 0.0 0.0 0.00 0.00 0.00 92
20260505083515 49 316 0.0 1.0 0.00 0.00 0.00 92
20260505083015 50 0.0 0.0 0.00 0.00 0.00 91
20260505082516 50 304 1.0 2.0 0.00 0.00 0.00 92
20260505082016 50 0.0 0.0 0.00 0.00 0.00 92
20260505081516 50 329 0.0 1.0 0.00 0.00 0.00 92
20260505081036 50 0.0 0.0 0.00 0.00 0.00 92
20260505080516 50 305 0.0 2.0 0.00 0.00 0.00 90
20260505080016 50 0.0 0.0 0.00 0.00 0.00 91
20260505075516 50 321 1.0 2.0 0.00 0.00 0.00 91
20260505075016 50 322 1.0 2.0 0.00 0.00 0.00 91
20260505074516 50 302 0.0 1.0 0.00 0.00 0.00 91
20260505074016 50 0.0 0.0 0.00 0.00 0.00 90
20260505073536 50 289 1.0 2.0 0.00 0.00 0.00 90
20260505073016 51 328 1.0 2.0 0.00 0.00 0.00 90
20260505072516 51 9 0.0 1.0 0.00 0.00 0.00 89
20260505072057 51 0.0 0.0 0.00 0.00 0.00 89
20260505071517 51 317 2.0 2.0 0.00 0.00 0.00 89
20260505071017 51 320 0.0 1.0 0.00 0.00 0.00 89
20260505070517 51 318 0.0 1.0 0.00 0.00 0.00 89
20260505070017 51 300 0.0 1.0 0.00 0.00 0.00 88
20260505065517 51 0.0 0.0 0.00 0.00 0.00 88
20260505065038 51 312 0.0 2.0 0.00 0.00 0.00 88
20260505064518 51 295 2.0 2.0 0.00 0.00 0.00 89
20260505064017 51 0.0 0.0 0.00 0.00 0.00 89
20260505063537 51 307 0.0 1.0 0.00 0.00 0.00 89
20260505063058 52 319 1.0 2.0 0.00 0.00 0.00 88
20260505062517 52 310 0.0 1.0 0.00 0.00 0.00 87
20260505062018 52 299 0.0 2.0 0.00 0.00 0.00 86
20260505061538 52 358 0.0 1.0 0.00 0.00 0.00 86
20260505061018 52 356 0.0 1.0 0.00 0.00 0.00 87
20260505060538 52 260 0.0 2.0 0.00 0.00 0.00 85
20260505060015 52 307 1.0 2.0 0.00 0.00 0.00 86
20260505055518 52 319 0.0 0.0 0.00 0.00 0.00 85
20260505055018 52 0.0 0.0 0.00 0.00 0.00 85
20260505054515 53 0.0 0.0 0.00 0.00 0.00 86